KF0PEC-15 Weather Reports


time (UTC)temp
C
wind
direction
speed
KPH
gust
KPH
rain 1hr
cm
rain 24hr
cm
rain mn
cm
humidity
%
barometer
mb
20260906202800 31 116 3.2 11.3 0.00 0.00 0.00 36 1004.4
20260906181120 30 78 3.2 6.4 0.00 0.00 0.00 35 1006.9
20260906180120 30 216 3.2 8.0 0.00 0.00 0.00 36 1007.3
20260906175306 29 146 3.2 6.4 0.00 0.00 0.00 37 1007.5
20260906174313 29 199 3.2 9.7 0.00 0.00 0.00 36 1007.9
20260906173410 28 188 1.6 6.4 0.00 0.00 0.00 36 1008.3
20260906172600 28 134 1.6 8.0 0.00 0.00 0.00 36 1008.6
20260906171723 28 154 1.6 8.0 0.00 0.00 0.00 36 1009.0
20260906170820 29 73 0.0 3.2 0.00 0.00 0.00 34 1008.1
20260906165903 29 165 1.6 4.8 0.00 0.00 0.00 34 1008.4
20260906164950 28 142 1.6 6.4 0.00 0.00 0.00 34 1008.7
20260906163955 28 177 3.2 8.0 0.00 0.00 0.00 34 1008.6
20260906163040 28 146 1.6 6.4 0.00 0.00 0.00 34 1008.8
20260906162120 28 175 1.6 8.0 0.00 0.00 0.00 34 1008.4
20260906161250 28 173 1.6 6.4 0.00 0.00 0.00 36 1009.0
20260906160435 27 139 1.6 6.4 0.00 0.00 0.00 35 1009.1
20260906155523 27 45 3.2 6.4 0.00 0.00 0.00 36 1009.4
20260906154623 27 62 1.6 3.2 0.00 0.00 0.00 36 1009.5
20260906153745 27 77 0.0 3.2 0.00 0.00 0.00 37 1009.6
20260906152820 26 59 1.6 3.2 0.00 0.00 0.00 38 1010.0
20260906151930 25 54 1.6 4.8 0.00 0.00 0.00 39 1010.6
20260906151130 25 50 1.6 4.8 0.00 0.00 0.00 40 1011.0
20260906150200 24 8 1.6 3.2 0.00 0.00 0.00 43 1011.8
20260906145323 22 33 1.6 3.2 0.00 0.00 0.00 45 1012.6
20260906144515 21 35 1.6 3.2 0.00 0.00 0.00 48 1013.6
20260906143543 21 7 1.6 4.8 0.00 0.00 0.00 49 1013.8
20260906142730 20 18 1.6 4.8 0.00 0.00 0.00 50 1014.4
20260906141930 20 22 1.6 6.4 0.00 0.00 0.00 52 1014.7
20260906141023 18 15 1.6 4.8 0.00 0.00 0.00 60 1015.9
20260906140130 17 22 3.2 4.8 0.00 0.00 0.00 63 1016.4
20260906135235 16 15 0.0 3.2 0.00 0.00 0.00 68 1017.3
20260906134410 16 0.0 1.6 0.00 0.00 0.00 74 1017.7
20260906133610 15 49 0.0 1.6 0.00 0.00 0.00 74 1017.9
20260906132650 15 0.0 0.0 0.00 0.00 0.00 73 1018.1
20260906131820 14 36 0.0 1.6 0.00 0.00 0.00 76 1018.4
20260906130843 14 30 0.0 3.2 0.00 0.00 0.00 76 1018.5
20260906125855 14 0.0 0.0 0.00 0.00 0.00 76 1018.6
20260906124920 14 353 0.0 3.2 0.00 0.00 0.00 76 1018.6
20260906124045 14 0.0 1.6 0.00 0.00 0.00 75 1018.6
20260906123146 15 0.0 0.0 0.00 0.00 0.00 75 1018.2
20260906122320 15 0.0 0.0 0.00 0.00 0.00 72 1018.0
20260906121410 15 0.0 0.0 0.00 0.00 0.00 70 1017.7
20260906120423 15 0.0 0.0 0.00 0.00 0.00 70 1017.5
20260906115623 15 72 0.0 1.6 0.00 0.00 0.00 70 1017.4
20260906114630 16 0.0 1.6 0.00 0.00 0.00 69 1017.1
20260906113745 15 0.0 0.0 0.00 0.00 0.00 71 1017.1
20260906112843 16 0.0 0.0 0.00 0.00 0.00 73 1017.1
20260906111923 16 338 0.0 3.2 0.00 0.00 0.00 73 1016.9
20260906111020 16 0.0 1.6 0.00 0.00 0.00 74 1016.8
20260906110120 16 0.0 0.0 0.00 0.00 0.00 74 1016.7
20260906105135 16 0.0 0.0 0.00 0.00 0.00 74 1016.7
20260906104150 16 79 0.0 1.6 0.00 0.00 0.00 73 1016.4
20260906103305 16 0.0 0.0 0.00 0.00 0.00 74 1016.4
20260906102500 16 9 0.0 1.6 0.00 0.00 0.00 74 1016.3
20260906101613 16 4 0.0 3.2 0.00 0.00 0.00 74 1016.5
20260906100730 16 0.0 0.0 0.00 0.00 0.00 76 1016.8
20260906095840 16 5 0.0 1.6 0.00 0.00 0.00 76 1017.2
20260906094955 16 0.0 0.0 0.00 0.00 0.00 76 1017.1
20260906094020 16 0.0 1.6 0.00 0.00 0.00 75 1016.7
20260906093115 16 0.0 0.0 0.00 0.00 0.00 75 1016.7
20260906092143 16 8 0.0 1.6 0.00 0.00 0.00 74 1016.4
20260906091235 16 19 0.0 1.6 0.00 0.00 0.00 74 1016.3
20260906090335 16 3 0.0 3.2 0.00 0.00 0.00 74 1016.2
20260906085520 16 360 1.6 3.2 0.00 0.00 0.00 74 1016.4
20260906084530 16 38 0.0 1.6 0.00 0.00 0.00 75 1016.4
20260906083603 16 0.0 0.0 0.00 0.00 0.00 74 1016.6
20260906082655 16 0.0 0.0 0.00 0.00 0.00 74 1016.2
20260906081723 16 0.0 1.6 0.00 0.00 0.00 74 1016.4
20260906080923 17 36 0.0 3.2 0.00 0.00 0.00 73 1016.0
20260906080123 17 33 1.6 3.2 0.00 0.00 0.00 72 1016.0
20260906075243 17 0.0 1.6 0.00 0.00 0.00 71 1016.2
20260906074320 17 2 0.0 1.6 0.00 0.00 0.00 70 1015.9
20260906073342 17 39 0.0 3.2 0.00 0.00 0.00 70 1016.0
20260906072540 17 0.0 1.6 0.00 0.00 0.00 69 1015.8
20260906071703 18 6 3.2 6.4 0.00 0.00 0.00 68 1015.7
20260906070750 17 9 3.2 6.4 0.00 0.00 0.00 69 1015.9
20260906065815 17 358 1.6 4.8 0.00 0.00 0.00 70 1016.1
20260906064921 17 358 0.0 1.6 0.00 0.00 0.00 72 1016.2
20260906063923 17 0.0 1.6 0.00 0.00 0.00 72 1016.5
20260906063035 17 41 0.0 1.6 0.00 0.00 0.00 72 1016.2
20260906062110 17 0.0 1.6 0.00 0.00 0.00 71 1015.8
20260906061140 18 3 1.6 3.2 0.00 0.00 0.00 70 1015.7
20260906060250 17 0.0 0.0 0.00 0.00 0.00 71 1015.5
20260906055250 18 0.0 0.0 0.00 0.00 0.00 71 1015.3
20260906054410 18 0.0 0.0 0.00 0.00 0.00 70 1015.0
20260906053500 18 336 0.0 1.6 0.00 0.00 0.00 70 1014.8
20260906052515 18 0.0 0.0 0.00 0.00 0.00 69 1014.7
20260906051625 18 0.0 0.0 0.00 0.00 0.00 69 1014.6
20260906050703 19 0.0 0.0 0.00 0.00 0.00 67 1014.3
20260906045830 19 44 0.0 1.6 0.00 0.00 0.00 66 1014.4
20260906044915 19 0.0 0.0 0.00 0.00 0.00 63 1014.3
20260906044003 20 0.0 0.0 0.00 0.00 0.00 63 1014.2
20260906043103 20 0.0 1.6 0.00 0.00 0.00 64 1014.1
20260906042300 20 0.0 1.6 0.00 0.00 0.00 62 1013.9
20260906041335 20 0.0 1.6 0.00 0.00 0.00 60 1013.5
20260906040430 21 39 0.0 1.6 0.00 0.00 0.00 58 1013.4
20260906035615 21 0.0 0.0 0.00 0.00 0.00 57 1013.2
20260906034650 21 0.0 0.0 0.00 0.00 0.00 54 1012.9
20260906033823 22 0.0 0.0 0.00 0.00 0.00 52 1012.7
20260906032830 22 0.0 1.6 0.00 0.00 0.00 51 1012.1
20260906031915 22 295 0.0 1.6 0.00 0.00 0.00 57 1011.8
20260906030926 23 0.0 1.6 0.00 0.00 0.00 56 1011.3
20260906025940 23 78 0.0 3.2 0.00 0.00 0.00 56 1011.0
20260906024950 22 278 1.6 3.2 0.00 0.00 0.00 54 1011.4
20260906024010 22 313 0.0 1.6 0.00 0.00 0.00 51 1010.9
20260906023030 22 20 1.6 4.8 0.00 0.00 0.00 49 1011.4
20260906022105 22 140 0.0 3.2 0.00 0.00 0.00 49 1011.2
20260906021123 22 0.0 0.0 0.00 0.00 0.00 46 1010.2
20260906020303 23 341 0.0 1.6 0.00 0.00 0.00 45 1009.5
20260906015330 23 1 0.0 1.6 0.00 0.00 0.00 44 1009.2
20260906014440 24 0.0 0.0 0.00 0.00 0.00 44 1008.9
20260906013630 24 0.0 0.0 0.00 0.00 0.00 44 1008.7
20260906012643 25 0.0 0.0 0.00 0.00 0.00 42 1008.1
20260906011740 26 314 0.0 1.6 0.00 0.00 0.00 41 1007.7
20260906010855 26 299 0.0 1.6 0.00 0.00 0.00 38 1007.3
20260906005905 27 0.0 1.6 0.00 0.00 0.00 36 1006.7
20260906005033 27 0.0 0.0 0.00 0.00 0.00 36 1006.5
20260906004054 28 0.0 0.0 0.00 0.00 0.00 36 1006.3
20260906003220 28 0.0 0.0 0.00 0.00 0.00 34 1006.0
20260906002300 28 0.0 0.0 0.00 0.00 0.00 33 1005.7
20260906001315 28 325 0.0 3.2 0.00 0.00 0.00 33 1005.5
20260906000503 28 325 0.0 1.6 0.00 0.00 0.00 33 1005.6
20260905235603 28 321 0.0 1.6 0.00 0.00 0.00 33 1005.6
20260905234803 29 319 0.0 3.2 0.00 0.00 0.00 32 1005.5
20260905233840 29 246 0.0 1.6 0.00 0.00 0.00 32 1005.4
20260905232925 28 0.0 1.6 0.00 0.00 0.00 31 1005.4
20260905231940 28 7 1.6 3.2 0.00 0.00 0.00 31 1005.5
20260905231043 29 0.0 1.6 0.00 0.00 0.00 31 1005.3
20260905230140 29 9 1.6 6.4 0.00 0.00 0.00 30 1005.0
20260905225143 29 342 1.6 4.8 0.00 0.00 0.00 31 1005.4
20260905224321 28 354 1.6 3.2 0.00 0.00 0.00 30 1005.8
20260905223350 29 351 1.6 4.8 0.00 0.00 0.00 30 1005.4
20260905222523 30 358 1.6 8.0 0.00 0.00 0.00 30 1005.0
20260905221555 28 360 4.8 8.0 0.00 0.00 0.00 30 1005.8
20260905220755 28 351 1.6 4.8 0.00 0.00 0.00 31 1005.8
20260905215943 28 12 0.0 3.2 0.00 0.00 0.00 33 1006.1